PROFILE

 METAR AND TAF INFORMATION
ADDS - METARS form results

(1208 UTC 15 May 2021)
http://aviationweather.gov/metar/data/
 
LSZH 151150Z 26008KT 9999 FEW045 BKN078 14/05 Q1008 NOSIG
LSZH 151120Z 26008KT 230V290 9999 FEW042 14/04 Q1008 NOSIG
TAF LSZH 151125Z 1512/1618 25011KT 9999 FEW040 BKN070 TX15/1512Z TN08/1604Z TX15/1614Z TEMPO 1514/1523 RA BKN030 BECMG 1518/1520 21006KT TEMPO 1607/1618 SHRA TEMPO 1611/1615 26011KT PROB30 TEMPO 1611/1616 27015G25KT 4000 TSRA FEW030CB 

 AIRPORT MAP

 RUNWAY INFORMATION
Runway 10 Runway length 8202 ft Runway width 197 ft
Runway elevation 1391 ft Runway displaced threshold 0 ft Runway heading 96
Runway 28 Runway length 8202 ft Runway width 197 ft
Runway elevation 1416 ft Runway displaced threshold 0 ft Runway heading 276
Runway 14 Runway length 10827 ft Runway width 197 ft
Runway elevation 1402 ft Runway displaced threshold 490 ft Runway heading 137
Runway 32 Runway length 10827 ft Runway width 197 ft
Runway elevation 1402 ft Runway displaced threshold 0 ft Runway heading 317
Runway 16 Runway length 12139 ft Runway width 197 ft
Runway elevation 1390 ft Runway displaced threshold 0 ft Runway heading 155
Runway 34 Runway length 12139 ft Runway width 197 ft
Runway elevation 1388 ft Runway displaced threshold 1541 ft Runway heading 335

 AIRPORT FREQUENCIES
Type APP Name APP Frequency 118 MHZ
Type ATIS Name ATIS Frequency 125.725 MHZ
Type CLD Name CLNC DEL Frequency 121.8 MHZ
Type DEP Name DEP Frequency 125.95 MHZ
Type GND Name GND Frequency 121.9 MHZ
Type RMP Name APRON Frequency 121.75 MHZ
Type TCA Name TERMINAL Frequency 127.75 MHZ
Type TWR Name TWR Frequency 118.1 MHZ

 AIRPORT NEAR NAVIGATION AIDS
Type VOR-DME Name Kloten Frequency 114850 KHZ
Type VOR-DME Name Zurich East Frequency 110050 KHZ